RH
44 44 43 42 38 30 25 24 24 21 25 46 72 76 65 60 55 51 64 82 89 81 59 40 36 33 31 35 38 41 42 37 34 32 27 22 17 14 12 11 12 11 11 13 15 17 18 20 21 23 26 28 29 29 29 28 27 26 26 25 24 23 23 22 21 21 21 20 19 18 17 17 16 15 15 15 15 15 15 14 14 14 14 14 14
51 47 47 49 46 36 28 21 15 16 26 43 59 63 57 56 50 39 38 49 63 74 72 63 56 52 51 53 54 53 49 43 39 36 34 33 30 27 25 23 23 22 22 23 23 24 25 27 29 30 31 32 32 34 35 35 34 32 31 30 29 28 26 26 25 24 24 23 22 22 21 21 20 19 19 19 18 18 17 17 17 17 17 16 16
59 54 53 54 49 40 33 23 14 14 22 29 34 37 40 46 49 40 28 26 41 61 70 69 67 66 68 72 73 67 56 48 44 41 39 40 41 40 39 39 37 34 33 31 29 30 31 32 33 32 31 32 32 33 35 36 38 38 37 35 34 33 32 31 30 29 27 26 25 25 24 23 23 22 22 21 20 20 19 19 19 19 19 19 19
64 59 57 56 52 45 37 27 17 13 15 16 18 25 32 37 43 45 41 37 42 52 60 62 63 64 69 76 81 81 73 61 52 48 45 43 43 44 43 44 45 44 43 42 39 38 37 37 36 33 31 32 34 37 38 38 37 37 39 38 36 35 34 34 34 34 33 33 32 32 31 30 29 28 27 26 24 23 22 22 22 22 22 22 22
60 55 53 53 50 43 37 31 22 18 18 15 16 23 30 32 34 41 48 51 51 51 52 54 55 60 69 78 82 85 84 74 62 56 54 50 46 45 44 42 42 43 45 47 48 47 44 41 37 35 36 41 47 51 52 51 48 43 40 39 39 37 35 35 36 36 36 36 37 38 38 37 35 33 31 29 27 26 25 24 23 22 22 21 21
46 43 43 48 49 42 36 33 29 26 23 20 20 21 24 24 22 21 26 31 33 35 41 48 53 59 72 82 86 89 90 83 72 65 64 62 56 51 49 48 46 45 44 45 47 50 50 49 48 46 48 54 56 54 54 57 57 53 45 41 40 40 39 38 38 39 40 42 44 46 46 44 42 40 36 31 27 24 23 23 22 21 20 20 20
35 32 33 41 48 47 39 33 32 32 29 26 26 25 23 20 17 17 18 18 18 20 32 52 62 68 79 88 92 96 94 88 82 75 71 72 69 62 57 55 53 53 53 52 52 54 59 66 70 67 67 69 64 53 50 53 56 57 53 47 43 43 44 43 42 43 45 47 48 47 47 47 46 45 43 39 35 29 25 23 21 20 18 17 17
30 27 25 28 36 44 44 39 36 39 40 35 29 27 27 23 20 21 20 18 16 11 24 58 79 82 88 95 98 99 97 96 94 86 80 81 80 74 67 63 62 62 64 66 64 61 62 69 76 75 75 80 76 66 59 56 54 57 58 55 51 48 49 50 48 47 49 50 49 47 48 48 45 43 42 41 41 39 35 32 29 27 24 22 19
26 23 21 19 19 26 35 40 43 48 54 51 37 26 24 22 20 20 17 17 19 13 15 37 58 72 84 93 100 103 99 98 100 95 93 93 90 85 81 79 79 79 80 83 81 74 67 67 70 69 68 70 70 69 68 62 57 56 57 60 61 59 58 58 56 54 53 54 55 56 57 55 51 45 41 39 38 37 36 35 34 33 32 31 29
18 17 16 15 14 14 17 24 33 42 54 58 43 25 19 18 17 18 17 16 18 18 17 14 23 56 87 91 94 102 96 93 99 100 99 101 100 97 93 89 86 82 79 80 79 74 68 66 66 64 61 60 59 61 61 57 54 54 54 56 60 62 62 63 63 62 60 61 61 62 62 61 58 52 46 44 42 39 37 36 34 33 32 31 31
13 13 13 12 13 14 13 14 17 23 32 36 29 20 18 19 19 19 21 20 18 18 21 15 12 42 84 95 93 97 95 94 99 100 98 98 97 97 95 91 85 79 74 74 73 71 69 66 61 54 50 50 49 47 45 43 42 44 48 49 50 53 56 58 60 62 62 62 60 59 57 55 54 52 48 46 45 42 40 38 35 33 30 29 29
13 13 14 13 12 12 13 13 13 14 16 16 14 13 14 18 21 22 22 24 23 20 21 23 16 23 53 74 77 82 92 100 98 95 96 93 86 85 86 84 82 84 83 77 69 66 66 61 51 40 33 33 32 28 27 26 25 26 29 30 30 32 35 39 43 45 47 48 47 46 45 44 43 43 41 40 38 36 34 32 30 29 27 25 25
16 15 14 14 14 13 12 14 15 14 13 13 13 13 14 16 20 22 23 25 29 27 24 25 23 20 28 38 42 51 72 89 90 88 96 99 92 88 85 81 82 86 79 64 52 49 49 43 37 32 27 23 22 20 18 17 16 15 14 13 13 13 15 17 20 22 24 25 25 25 26 27 27 27 27 27 26 25 25 24 22 20 19 19 19
18 18 17 16 16 15 16 22 27 23 17 15 13 12 15 18 19 20 24 28 31 33 31 28 27 26 28 31 33 34 42 52 53 55 76 97 102 99 96 93 92 87 74 59 48 40 36 35 34 31 29 25 23 21 19 17 15 14 13 12 11 10 9 9 9 10 11 12 13 13 14 15 16 16 16 17 17 17 16 16 16 15 15 15 16
20 21 22 19 18 18 21 33 44 41 31 27 23 19 17 20 21 25 32 36 36 35 37 37 36 36 37 39 39 32 33 47 53 50 60 76 81 83 88 88 81 74 67 61 52 43 38 36 32 28 25 23 22 20 19 17 16 15 14 13 12 11 9 8 7 7 8 8 9 9 10 11 11 11 11 11 11 12 11 11 11 11 12 13 14
24 25 25 22 20 20 24 37 45 40 34 38 42 38 34 32 31 33 39 43 41 40 42 44 45 48 51 51 46 39 42 61 77 77 72 70 65 64 69 69 63 61 59 55 49 46 43 35 30 28 26 23 21 19 18 17 16 15 15 14 13 12 10 10 8 7 7 7 7 7 7 7 7 7 7 7 6 6 6 6 6 6 6 7 7
24 25 25 24 23 20 21 29 30 27 32 43 51 56 61 63 58 50 46 45 44 48 53 53 51 54 57 57 56 54 54 62 72 75 76 76 74 71 70 67 64 63 59 54 52 49 42 37 39 39 34 28 24 21 19 18 17 16 15 14 14 13 12 11 10 8 8 7 6 6 6 6 5 5 5 5 5 5 5 5 5 5 5 6 6
23 23 22 26 32 33 28 21 16 23 38 52 67 82 89 90 87 77 68 64 61 61 62 61 62 63 63 63 62 60 60 64 66 67 71 77 82 84 84 81 77 71 64 61 60 53 47 50 55 52 44 38 31 25 21 20 18 17 17 15 14 13 12 11 9 8 8 7 6 5 5 5 5 4 4 5 4 5 5 5 5 5 6 6 6
21 21 20 24 32 35 29 16 13 28 44 56 79 99 100 97 100 96 88 82 78 75 73 71 72 72 70 70 68 63 64 68 69 68 73 81 86 91 94 93 89 84 78 74 68 61 60 65 64 59 53 45 36 28 23 20 19 17 17 16 15 14 12 11 9 7 7 6 5 5 4 4 4 4 4 4 5 5 5 5 5 6 6 7 7
19 18 16 17 19 20 16 11 12 25 39 54 79 100 101 98 100 100 99 98 94 91 89 84 79 77 77 79 81 83 83 82 77 74 78 86 90 93 96 97 96 95 90 85 79 75 74 72 67 61 52 40 31 27 24 21 20 19 18 17 16 15 13 11 9 7 6 5 4 4 4 4 4 4 5 5 4 5 5 5 5 6 6 7 8
14 14 13 11 11 11 10 9 10 13 19 34 60 84 96 101 102 100 99 101 100 98 98 95 90 89 91 93 96 99 97 89 80 75 76 83 89 92 95 99 101 102 99 93 88 82 76 71 65 56 43 30 25 25 23 21 20 19 18 17 16 15 13 11 9 7 5 4 4 4 4 4 4 4 5 5 5 5 6 7 8 9 9 10 12
12 12 14 14 13 13 13 14 16 17 16 20 34 51 65 79 93 100 100 99 98 93 90 89 90 93 98 102 103 102 98 90 83 79 78 79 82 87 92 97 100 101 98 91 84 77 72 68 61 47 33 27 26 25 22 22 22 21 20 19 17 15 12 10 8 6 5 4 4 4 5 5 5 5 6 7 8 10 11 12 13 14 15 15 15
16 17 19 21 24 29 32 32 33 35 36 33 34 39 42 46 60 78 89 96 100 97 93 92 92 94 99 102 101 95 84 74 71 72 74 79 83 85 85 86 87 87 83 78 75 74 72 66 52 38 30 28 27 24 23 25 27 27 24 20 17 15 13 11 9 7 6 5 5 6 6 6 7 9 10 12 14 15 15 15 15 15 14 14 13
34 34 34 35 36 41 46 49 50 51 54 54 52 51 49 46 45 54 69 85 91 89 88 90 91 93 97 97 95 91 84 78 76 75 73 76 82 86 84 81 79 76 74 74 74 72 65 54 41 33 31 29 26 23 25 30 34 33 29 24 21 19 17 15 13 11 9 8 7 8 9 10 12 13 14 15 14 13 12 12 10 10 9 9 9
51 51 52 52 52 53 55 57 58 58 59 60 60 58 56 52 47 49 65 87 96 92 89 91 93 96 99 98 96 96 96 95 95 95 93 89 85 84 83 80 78 78 78 75 69 60 51 43 37 33 31 28 24 22 22 27 32 31 29 27 26 24 23 22 19 15 12 11 11 12 14 14 15 14 14 13 12 11 10 9 9 8 8 8 8
47 47 49 50 52 54 53 53 55 56 56 57 58 58 56 54 57 62 70 83 97 101 100 100 100 98 97 98 99 101 102 101 100 101 101 98 90 85 83 82 81 78 72 64 56 51 47 42 37 32 28 24 21 19 19 22 25 25 25 25 24 23 23 23 21 17 14 14 15 16 17 16 15 14 13 12 11 10 10 9 9 9 8 8 9
28 30 32 33 36 38 40 41 42 42 45 47 51 54 52 51 60 74 78 80 91 100 100 96 93 93 96 100 102 103 100 99 101 102 100 100 98 95 92 87 80 70 61 55 52 50 47 41 34 28 24 20 17 16 18 20 22 23 22 21 20 19 18 18 18 16 15 16 18 18 18 16 15 13 12 10 10 9 9 9 9 9 9 9 8
15 15 16 17 19 20 22 24 26 26 29 32 36 43 48 46 50 61 69 72 80 87 91 94 94 95 100 103 103 103 100 96 96 98 97 95 93 90 85 79 71 64 60 58 55 50 43 36 30 24 19 16 15 15 16 17 19 20 20 20 19 19 19 18 17 16 17 18 18 17 16 14 11 10 10 9 10 10 10 10 9 9 8 7 6
11 11 12 12 13 13 13 14 15 15 17 19 21 26 34 39 43 49 52 59 71 76 77 85 94 99 102 103 101 100 100 98 96 95 92 88 86 86 83 76 69 64 60 54 49 43 36 29 23 19 16 15 15 15 16 18 19 20 21 22 21 20 19 17 17 18 19 18 16 14 12 11 10 10 10 10 11 10 10 9 8 7 7 10 15
10 10 11 11 11 12 13 13 14 13 12 14 15 16 20 25 32 37 41 55 78 87 78 76 90 100 100 101 103 102 100 100 100 99 98 99 100 97 90 80 71 64 57 48 40 32 27 23 19 17 16 17 17 18 20 23 24 25 25 25 22 19 18 18 18 18 16 14 13 12 11 12 12 11 11 11 10 9 8 9 10 15 23 33 43
8 8 8 9 9 11 11 11 12 13 13 13 13 15 16 16 20 26 30 39 58 71 67 70 89 104 104 100 100 99 98 100 102 100 97 95 93 87 79 72 66 58 49 40 33 27 23 20 18 18 20 21 22 25 27 30 32 30 26 22 19 18 19 18 16 14 13 13 14 13 13 12 12 11 11 9 8 10 16 24 32 43 56 67 73
13 11 10 9 8 7 8 9 10 11 12 13 13 14 15 15 16 19 23 30 38 44 49 56 68 83 94 98 100 101 101 98 95 90 85 80 74 67 57 47 40 35 31 30 30 28 24 22 22 24 26 28 31 34 36 36 33 27 21 19 20 19 17 14 14 14 15 15 14 13 13 12 11 11 10 10 16 29 44 56 66 75 81 85 87
29 26 24 23 19 14 11 9 8 9 10 11 12 13 13 16 16 12 23 51 69 68 68 70 68 68 77 85 89 92 90 85 80 76 73 71 65 54 40 29 25 26 28 30 31 29 27 28 30 32 34 39 43 43 39 33 26 21 20 21 19 15 13 15 17 17 15 14 14 14 14 13 12 11 14 24 41 61 74 81 85 87 88 90 93
45 41 36 35 36 34 29 21 13 11 10 9 11 12 11 15 16 11 23 59 91 99 96 92 88 87 88 84 78 72 68 73 81 77 65 58 52 37 25 23 26 30 32 34 33 33 33 35 37 40 45 48 46 40 32 25 21 21 21 17 13 14 18 19 18 16 14 15 16 15 14 15 15 19 32 52 70 81 86 87 88 88 89 91 94
54 54 49 43 42 46 51 46 31 19 13 11 12 13 12 14 17 15 14 30 60 88 99 96 95 101 97 83 78 81 82 88 94 87 68 54 44 33 26 27 29 31 33 34 35 35 36 38 43 48 48 44 38 30 24 21 22 21 16 13 17 23 23 18 15 16 17 17 17 16 16 20 26 36 55 75 86 88 87 86 87 87 88 89 91
52 58 62 57 49 46 56 65 58 38 21 15 15 17 17 17 19 20 17 16 26 49 67 72 80 94 97 90 90 96 98 101 101 89 68 49 36 28 25 26 29 32 33 33 34 35 37 40 44 43 38 33 29 24 22 22 19 12 12 22 30 28 19 14 16 19 18 18 18 17 19 28 42 58 75 87 91 89 87 86 87 89 89 90 91
34 43 59 70 64 50 49 65 76 60 34 20 19 21 22 23 23 23 24 22 20 26 37 46 53 62 74 91 104 104 98 101 99 78 47 27 20 19 18 18 22 26 27 30 33 34 35 38 37 33 30 28 25 23 22 17 11 14 28 38 32 19 14 16 19 20 19 20 19 17 23 42 62 76 86 93 93 89 88 89 92 94 94 93 90
21 23 38 64 80 70 52 57 80 79 48 24 23 26 26 30 32 30 29 30 28 26 31 44 58 61 59 71 93 102 97 91 78 52 26 15 15 16 15 15 17 19 22 27 31 32 33 33 30 28 28 25 22 21 16 11 17 35 47 37 19 12 16 19 20 20 21 22 20 17 27 57 81 88 91 97 96 91 92 94 96 97 96 90 86
20 13 21 55 91 94 67 56 77 86 58 28 27 35 36 37 39 39 38 38 35 32 28 33 50 64 61 55 63 74 73 63 47 30 19 17 16 14 14 15 15 16 20 26 29 31 31 29 28 27 24 20 19 17 15 26 48 57 42 19 10 15 19 19 20 24 23 22 21 18 29 64 94 98 94 98 100 98 99 101 99 99 98 93 89
17 12 30 68 100 104 83 66 77 87 65 34 28 39 45 47 48 48 45 42 39 40 37 31 32 42 46 41 38 39 39 36 30 23 17 15 14 13 14 14 14 15 19 24 28 29 28 27 26 23 18 17 19 23 38 61 70 49 21 10 13 18 18 19 23 26 24 23 24 19 25 58 95 105 98 99 104 103 103 104 104 101 97 93 89
18 17 47 84 101 101 91 77 78 88 75 45 31 37 43 47 52 54 52 51 46 39 35 33 30 26 24 27 36 41 36 25 18 16 16 15 14 14 13 13 14 16 19 23 25 25 23 22 20 18 20 25 34 50 72 80 58 24 9 12 16 16 18 21 24 27 27 25 25 21 21 43 81 105 105 102 104 106 104 104 106 100 91 89 88
30 21 42 75 94 102 99 84 80 92 89 64 46 45 48 55 67 68 61 58 54 44 38 40 39 34 36 51 74 86 76 51 31 25 21 14 11 12 14 14 16 17 18 21 22 19 19 21 23 29 38 48 62 81 86 65 30 10 11 15 14 15 19 22 24 29 30 26 25 25 21 25 55 91 108 105 103 106 106 104 101 95 90 91 94
46 29 29 45 66 86 90 78 75 92 102 89 75 72 76 84 91 87 75 65 55 45 39 34 29 38 64 88 100 103 98 84 68 58 45 28 17 17 17 16 16 18 20 20 19 20 28 37 46 55 64 73 83 87 70 36 13 11 14 13 13 16 19 21 25 29 30 28 27 27 23 18 29 61 94 106 103 103 105 103 98 95 96 99 101
62 49 35 30 35 47 58 60 64 82 100 103 98 97 100 101 97 91 81 65 48 45 51 47 41 57 88 103 99 98 103 97 82 70 59 43 30 24 21 19 21 24 25 26 31 42 57 69 74 78 81 84 82 69 42 18 12 14 13 12 15 16 16 20 25 26 29 32 30 26 26 22 18 30 62 91 102 102 102 101 97 94 96 101 103
70 66 57 47 35 27 31 44 58 70 81 89 94 98 97 92 87 80 68 50 47 66 88 90 84 91 102 101 96 101 106 91 66 53 50 48 45 43 40 37 38 42 44 48 60 77 88 89 85 83 84 79 66 45 25 15 14 13 12 12 15 15 15 19 21 23 27 32 32 28 28 26 19 16 29 55 82 98 103 101 97 94 92 95 100
72 73 72 69 60 45 32 32 43 57 68 76 83 83 76 67 62 58 50 48 64 90 104 101 99 101 101 98 99 104 98 80 65 64 71 79 82 80 72 65 66 71 75 80 90 98 95 87 81 80 77 65 46 29 19 16 14 13 13 13 13 14 16 16 17 20 24 28 32 32 29 26 23 19 14 22 45 74 92 98 96 92 89 88 92
75 75 74 76 78 75 63 49 40 41 49 58 63 61 55 53 59 66 70 78 92 102 101 98 100 101 99 100 103 99 90 83 85 92 98 102 102 99 92 88 89 94 96 98 100 97 87 80 78 76 65 48 33 23 20 17 14 13 13 13 12 14 16 15 15 18 20 24 29 33 32 28 25 21 16 12 18 38 63 83 89 88 85 84 85
83 83 81 78 78 81 85 84 74 59 47 46 52 59 65 72 80 88 92 94 96 96 95 98 101 101 100 100 99 93 90 94 99 101 102 103 104 102 100 98 99 100 101 100 97 90 83 79 75 66 51 37 29 24 21 18 16 14 13 13 14 14 14 15 15 15 16 20 25 29 32 32 27 22 19 15 10 14 32 56 76 85 84 81 80
85 87 88 88 86 83 82 88 93 91 82 75 73 78 83 86 88 90 88 85 81 78 79 84 91 95 96 94 93 93 96 99 101 101 101 101 101 101 100 100 100 100 100 97 92 87 81 75 65 53 42 34 30 26 22 19 17 15 14 13 14 14 14 14 14 14 14 17 21 25 30 32 30 25 22 18 13 10 13 27 51 75 86 85 82
83 85 86 90 95 97 92 88 88 92 95 95 93 91 89 86 85 88 90 90 89 87 86 88 91 94 94 95 98 100 100 98 99 101 101 99 97 99 101 101 101 100 98 94 88 82 74 65 55 46 40 35 31 27 24 20 17 16 15 14 13 13 13 13 13 13 14 15 18 22 27 30 31 29 25 20 16 13 10 10 24 49 74 88 89
86 87 86 85 86 90 94 97 97 96 96 97 98 98 97 95 93 93 95 97 98 99 99 100 99 99 100 102 102 100 99 99 100 101 101 99 99 101 101 100 100 99 96 90 83 74 65 56 49 44 41 37 32 28 24 21 18 16 15 14 13 13 13 13 12 12 13 14 16 20 24 28 30 30 28 24 20 15 12 9 10 21 46 74 90
Wind_Speed
17 16 15 14 14 14 13 12 12 12 12 12 14 16 16 17 17 17 15 14 15 15 15 15 15 15 17 18 19 19 20 20 21 21 22 23 23 23 23 22 22 21 20 19 19 18 17 16 15 14 14 13 14 14 15 15 16 16 16 16 15 15 15 14 14 14 14 14 14 14 15 15 15 16 16 16 17 17 17 17 17 17 17 17 17
17 16 16 16 16 15 13 11 11 12 12 11 13 15 16 16 16 17 16 13 11 11 13 14 16 17 18 20 21 21 21 21 22 22 22 22 22 22 22 22 21 21 21 21 20 19 18 17 16 15 14 14 14 14 15 16 17 18 18 18 17 17 16 16 15 14 14 14 14 15 15 16 16 17 17 17 18 18 18 19 19 19 19 19 19
17 17 16 16 15 14 14 13 12 12 13 14 14 14 15 15 14 15 15 14 13 14 15 16 17 19 20 21 21 22 22 22 23 23 23 23 23 22 21 21 21 21 21 21 21 20 19 18 17 16 15 15 15 16 16 16 17 18 19 19 19 18 18 17 17 16 16 16 16 16 17 17 18 18 19 19 20 20 20 21 21 21 21 20 20
19 19 18 17 16 16 16 15 14 13 14 15 16 16 15 14 14 13 13 13 14 16 17 18 19 20 22 22 22 22 22 23 23 23 24 24 23 23 22 22 21 21 21 21 21 21 20 20 19 18 18 18 18 18 18 18 19 19 20 20 20 20 20 19 19 18 18 18 19 19 19 20 21 21 22 22 23 23 23 24 24 23 23 22 22
21 21 20 19 18 17 18 18 16 14 13 14 16 17 16 16 16 16 16 16 16 17 19 19 20 20 22 23 24 24 23 23 23 24 24 24 23 23 23 23 22 22 22 22 21 21 21 21 21 21 21 20 20 20 20 21 22 22 22 22 22 22 21 21 21 20 20 20 20 21 22 23 23 24 25 25 25 26 26 26 26 26 26 25 24
21 21 20 20 19 19 20 19 18 16 14 14 15 17 18 18 18 18 18 18 19 20 21 21 20 20 21 23 24 25 24 24 25 25 24 24 24 24 23 23 23 23 23 23 22 22 22 23 23 23 23 22 22 22 21 22 23 25 25 25 24 24 24 23 23 22 22 22 23 23 24 25 26 27 27 27 28 28 28 28 29 29 29 28 28
22 21 21 21 21 21 21 21 19 18 17 16 16 17 18 18 19 19 19 20 20 22 23 23 23 24 25 25 26 26 25 26 27 27 26 25 25 25 24 23 23 23 23 24 24 23 23 23 23 23 23 23 24 24 23 23 24 25 27 28 28 27 27 27 26 26 26 26 26 26 27 28 29 30 30 30 30 30 31 31 32 32 32 33 32
23 24 24 24 24 24 24 25 24 22 22 21 20 20 20 21 22 23 24 25 24 24 24 23 24 25 27 29 29 28 27 28 28 28 28 27 26 25 24 24 24 24 25 25 26 25 26 25 25 25 25 25 25 25 25 25 25 26 27 29 30 30 30 30 30 30 30 30 30 31 32 33 33 32 32 32 32 33 34 35 36 36 37 38 38
26 26 27 27 27 27 28 29 30 30 30 29 27 26 26 27 28 29 30 30 29 26 25 25 26 26 27 30 31 30 28 28 27 26 27 27 26 25 24 25 26 25 25 26 26 26 26 26 27 28 29 30 30 30 29 29 29 29 29 29 31 32 33 33 34 34 35 35 36 37 38 39 38 37 36 35 36 36 36 37 38 39 40 42 43
30 30 30 30 30 31 31 32 33 35 36 35 34 33 32 32 32 33 33 33 32 30 27 26 28 27 26 29 31 29 27 28 27 27 27 28 27 25 25 26 27 26 26 27 27 27 26 26 27 29 31 33 34 35 35 34 34 33 32 32 33 34 35 36 37 38 38 38 39 40 41 42 42 42 42 43 43 43 43 43 43 43 44 45 46
33 33 34 34 34 34 35 35 36 37 38 39 39 38 37 36 35 35 34 34 34 33 31 29 29 29 28 28 29 29 28 29 29 28 27 28 28 27 28 29 30 30 29 29 30 31 30 30 31 32 33 35 36 37 38 38 38 38 38 38 38 38 39 40 40 41 41 41 42 43 45 45 46 47 49 50 50 50 51 51 51 50 50 50 50
37 37 38 38 38 38 38 39 39 40 40 41 42 42 41 40 39 37 36 36 36 35 35 33 32 32 31 30 30 30 30 30 30 30 31 32 32 32 32 34 34 32 31 31 32 34 35 35 35 34 33 35 36 38 38 39 41 41 42 43 43 44 44 45 45 46 47 47 48 49 50 51 51 52 54 55 55 56 56 57 57 57 56 56 55
40 41 41 41 40 40 40 41 42 43 43 43 44 44 43 43 43 41 39 38 38 37 37 36 36 35 34 34 33 31 30 31 34 35 36 36 35 34 34 34 33 33 33 33 33 34 35 35 33 33 33 35 36 38 38 39 40 40 41 42 43 44 45 46 47 48 50 51 52 52 53 54 55 56 56 57 58 59 59 60 60 61 60 60 60
44 44 43 42 42 42 42 42 43 43 44 44 44 44 44 44 44 44 42 41 40 39 39 38 38 38 37 37 36 34 34 36 38 39 39 38 35 33 33 33 34 35 36 36 35 34 34 33 33 33 34 35 37 38 38 39 39 40 41 41 42 43 44 45 46 47 49 50 51 53 54 55 56 56 57 57 58 59 59 60 60 60 61 61 61
46 46 45 45 45 44 43 42 41 41 42 42 43 44 44 45 45 44 43 42 42 41 41 40 40 39 39 39 38 38 36 35 35 36 38 39 38 36 36 38 38 39 39 38 37 36 34 33 33 34 35 36 37 39 40 41 41 41 42 42 43 44 44 45 46 47 48 50 51 52 53 54 55 56 56 57 57 57 58 58 59 59 59 60 60
48 48 47 47 48 47 46 45 44 43 43 43 43 43 44 45 45 45 44 43 43 42 42 42 41 41 41 40 39 39 36 34 33 35 36 38 39 39 40 40 40 40 39 38 37 35 34 33 33 34 35 36 37 39 40 41 42 42 43 43 44 44 45 46 47 48 49 50 51 52 53 54 55 55 55 56 56 56 56 56 57 57 57 58 58
51 51 50 50 50 50 49 49 48 48 46 45 44 44 44 45 46 45 44 44 44 43 43 43 44 43 43 42 40 40 40 39 39 39 38 38 38 39 39 39 39 39 38 38 37 36 35 34 34 35 35 36 37 39 40 41 42 42 43 44 45 46 46 47 48 49 50 51 52 52 53 54 54 54 55 55 55 55 56 56 57 57 57 58 58
55 55 54 53 51 50 50 49 50 49 48 46 44 43 43 43 44 44 43 43 43 43 43 44 45 45 45 44 43 43 43 43 43 43 42 41 40 39 39 39 39 39 39 39 38 37 37 37 37 37 37 38 39 40 41 42 42 43 44 45 45 46 47 48 49 50 51 52 52 53 54 54 54 54 54 55 55 56 56 57 58 59 59 60 60
58 57 56 55 53 52 51 50 49 49 49 47 44 43 42 41 41 41 40 40 41 42 42 43 44 45 46 45 45 46 46 46 44 43 43 42 42 41 41 40 40 40 40 40 40 39 39 40 40 40 40 41 42 42 42 42 43 43 44 45 46 47 48 49 50 51 51 52 52 53 53 53 53 53 54 55 56 57 58 59 60 61 61 62 62
61 59 57 56 56 55 54 53 51 50 50 49 47 46 44 43 42 42 41 41 40 41 41 42 42 43 43 44 44 44 44 44 44 43 42 42 42 42 42 42 41 41 41 41 41 42 42 43 43 43 44 45 45 44 43 43 43 44 45 46 47 48 49 49 50 50 51 51 51 51 51 51 52 52 53 55 56 58 59 60 61 62 62 62 61
62 60 59 58 57 56 56 55 54 53 53 52 51 51 48 45 43 43 42 42 42 41 41 41 41 40 41 43 44 44 43 42 42 42 42 42 41 41 42 42 42 42 43 43 43 44 44 44 44 46 48 48 46 44 44 44 45 45 46 47 48 49 49 49 49 50 50 50 50 50 50 51 51 52 54 55 56 58 58 59 59 59 59 59 58
62 61 60 59 59 58 56 56 55 55 55 55 55 55 54 51 47 44 42 41 40 39 40 40 40 40 41 43 43 43 43 42 42 42 42 42 43 42 42 42 43 44 44 44 44 44 45 46 48 50 50 48 45 44 44 44 45 45 46 46 47 47 48 48 48 48 48 48 49 49 50 50 51 52 53 53 54 55 55 56 56 56 56 56 55
64 63 62 61 60 59 58 57 56 55 55 56 56 57 57 57 56 53 50 48 45 43 40 39 40 40 41 43 44 43 43 43 44 44 44 43 43 43 44 44 44 44 45 45 45 46 48 50 52 51 48 45 44 44 44 43 43 43 43 43 43 44 45 46 46 47 47 47 47 48 48 49 49 50 50 51 51 52 53 53 53 54 54 54 54
66 65 64 63 62 61 59 59 58 57 56 56 56 57 58 58 58 57 56 55 54 51 48 46 45 45 45 46 45 44 44 45 46 47 47 46 44 44 44 44 44 45 45 46 48 51 52 52 50 47 45 44 44 43 43 43 42 42 42 42 43 44 44 45 45 45 45 46 46 46 47 47 47 48 48 49 50 51 52 52 53 53 54 54 54
64 64 63 62 61 61 60 59 58 58 57 57 56 56 56 56 56 55 53 52 52 52 51 51 50 49 48 47 46 44 45 47 48 48 48 48 48 47 46 47 47 48 49 51 53 52 50 47 45 44 44 44 44 44 44 44 44 44 44 45 45 45 45 45 45 45 45 45 45 45 46 46 47 48 49 50 51 52 52 52 53 54 55 55 55
63 63 62 62 61 60 59 58 57 57 57 57 57 57 56 54 53 50 48 49 51 51 51 51 51 50 49 48 47 47 47 47 49 49 49 49 49 50 50 51 51 52 52 52 50 47 45 45 45 45 45 44 44 44 45 45 45 46 46 47 47 47 46 46 46 45 45 44 44 45 46 46 47 48 49 50 51 52 52 53 53 54 55 56 56
65 65 65 65 64 63 62 60 59 58 58 57 57 58 58 56 52 49 49 51 52 52 51 52 51 50 48 47 48 50 51 51 51 51 51 50 50 51 52 53 53 53 52 49 47 46 47 47 46 45 45 45 45 45 45 46 46 46 46 47 47 47 46 46 45 43 42 42 43 44 45 46 47 48 49 50 51 52 53 53 54 55 55 55 56
67 67 67 67 67 67 66 65 63 62 61 60 59 59 59 59 57 55 55 56 55 53 51 50 47 44 44 46 48 49 52 54 55 56 56 56 56 56 56 57 57 55 53 51 50 49 48 47 46 46 46 46 46 46 45 45 45 45 45 45 44 44 43 42 41 40 40 41 42 43 44 45 46 47 49 50 51 52 52 53 54 54 54 55 55
66 66 66 67 67 67 67 67 67 66 64 63 61 61 60 60 60 60 59 57 56 55 54 52 49 46 45 46 48 48 50 53 54 56 57 57 58 58 59 59 59 57 55 53 52 50 48 48 47 47 47 47 46 46 45 45 44 43 43 42 41 40 39 38 38 38 39 40 41 42 43 44 45 46 48 49 50 51 52 53 53 54 54 54 53
67 67 67 67 67 67 68 67 67 67 66 65 63 61 60 60 61 61 61 58 56 56 57 56 56 55 54 51 50 50 51 52 52 53 55 56 58 60 61 60 59 57 55 54 52 50 49 48 48 47 47 46 46 45 44 43 42 41 40 38 37 36 36 36 36 37 39 39 40 40 40 41 43 45 47 48 49 51 52 52 52 52 51 49 46
64 65 66 67 68 68 69 69 68 68 68 67 65 63 62 61 59 59 60 60 60 59 58 57 58 60 61 59 57 57 57 56 57 58 59 60 61 61 60 59 57 55 54 53 51 50 49 48 47 47 46 45 44 43 42 40 39 38 36 35 34 34 34 35 36 36 36 36 36 36 38 40 42 44 46 48 49 50 49 49 47 44 41 38 36
53 55 58 60 62 65 67 68 69 69 69 68 68 66 64 62 59 57 56 57 59 60 60 60 60 60 61 62 62 62 61 61 61 60 60 59 59 57 56 54 53 52 51 50 49 49 47 46 46 45 44 43 41 40 38 37 36 35 34 33 32 32 33 34 34 32 31 31 32 34 36 39 42 44 46 47 47 45 43 40 37 34 32 30 29
43 45 48 50 52 54 57 61 64 65 67 68 68 67 66 63 61 57 52 48 50 52 54 56 56 55 56 58 58 57 57 57 56 55 54 54 54 53 52 50 48 47 46 46 45 44 44 43 42 41 40 39 37 36 35 34 33 32 31 31 31 32 32 31 28 27 27 29 31 33 36 39 42 44 45 44 41 37 33 30 28 27 26 25 24
34 36 39 44 47 48 48 50 53 56 60 62 64 65 65 63 61 58 53 48 47 47 47 48 49 48 48 48 47 49 51 51 50 51 52 51 50 49 47 44 43 42 41 40 40 40 39 39 38 37 36 35 34 33 32 31 30 30 30 30 30 30 27 24 23 23 25 28 30 33 37 40 42 44 43 39 33 28 25 24 24 24 23 22 22
31 30 32 35 41 45 45 43 44 47 51 53 55 58 60 60 60 58 56 54 54 53 51 50 48 45 43 40 40 43 45 45 47 49 47 41 37 37 38 38 39 39 38 38 37 36 36 35 34 33 33 32 31 30 29 29 29 29 29 29 28 24 21 20 20 22 25 27 30 34 38 41 43 42 38 31 26 23 22 22 21 21 21 21 22
28 29 29 29 32 38 42 42 40 41 43 45 47 49 51 54 55 55 55 56 57 58 58 56 53 48 42 37 36 37 36 34 37 38 35 31 31 33 34 34 34 35 35 35 34 33 33 32 32 31 30 29 28 28 27 27 28 28 28 25 22 18 17 18 20 22 24 27 30 34 38 40 41 38 31 25 21 21 20 20 20 21 22 22 22
26 27 29 28 28 30 35 38 38 37 38 40 41 42 43 45 48 50 51 53 54 55 56 55 55 52 47 41 39 39 39 37 37 37 37 38 39 39 36 34 33 33 33 32 31 31 31 31 30 29 28 27 26 26 26 27 27 26 23 20 17 15 16 17 19 21 24 27 30 34 37 39 38 32 25 21 20 18 18 18 20 21 23 23 22
27 27 29 29 27 25 28 32 35 34 34 35 36 36 36 37 39 41 44 46 49 50 51 50 49 50 51 51 50 50 49 48 47 47 47 46 43 40 37 35 34 33 32 30 29 30 29 28 28 27 26 26 26 26 26 26 25 22 19 16 14 14 15 16 18 21 23 26 29 33 36 36 33 27 22 19 18 17 16 18 20 21 23 23 22
27 27 26 27 27 24 23 26 30 30 29 30 31 30 29 30 31 33 35 38 41 44 46 48 48 48 51 54 56 57 57 56 54 52 49 45 42 39 37 34 33 32 30 29 29 29 28 27 27 26 26 26 26 26 25 23 20 18 16 13 12 13 15 16 18 21 23 25 28 32 35 34 29 23 19 18 17 16 17 18 20 21 21 21 21
27 24 21 21 22 21 19 21 25 27 26 25 26 26 25 25 25 27 29 32 34 37 40 43 46 49 50 50 51 51 52 52 51 48 44 41 39 37 35 33 31 30 29 28 28 28 27 27 26 25 25 25 25 23 21 19 18 16 13 12 12 13 14 15 18 20 22 24 27 30 33 33 28 21 17 16 15 15 16 17 18 19 19 18 20
29 23 16 15 15 15 15 17 21 24 24 23 23 24 24 24 23 24 26 27 29 32 35 37 40 42 41 37 35 35 38 40 41 40 39 38 37 35 32 30 29 29 28 28 28 27 27 26 25 24 24 24 22 20 19 17 16 14 13 12 13 12 13 15 18 20 21 24 26 28 31 32 29 21 16 15 14 14 14 15 16 15 16 16 18
30 24 14 11 11 11 12 14 17 22 23 23 24 25 24 24 24 24 25 25 25 26 28 29 31 31 28 24 24 26 28 29 30 32 34 35 34 31 29 28 28 28 27 27 27 26 25 24 23 23 22 21 20 19 17 16 14 13 13 13 12 11 13 15 17 19 21 23 25 26 28 31 31 24 16 14 14 13 13 13 13 13 14 16 17
30 28 17 8 6 7 9 10 14 18 21 23 24 25 25 25 24 23 23 23 22 21 23 24 27 30 29 27 26 26 25 24 25 28 31 31 29 28 27 27 27 26 26 25 25 24 22 21 22 22 21 20 18 17 16 15 14 13 13 12 11 11 13 15 17 19 20 22 24 25 26 29 31 28 20 15 13 13 13 12 11 11 14 16 17
28 30 26 16 7 2 4 5 8 13 17 19 21 22 23 22 22 21 21 20 19 20 21 23 28 32 32 28 27 28 25 23 25 27 27 25 24 24 25 25 24 23 23 23 23 21 20 21 22 21 20 19 18 16 16 15 14 13 13 12 11 11 13 15 17 19 20 22 23 24 24 26 28 29 25 19 15 15 13 12 11 11 13 15 17
23 28 29 26 19 10 3 3 6 9 12 15 17 18 19 18 19 19 19 20 22 24 22 20 23 27 27 26 28 29 25 21 21 22 21 21 21 21 22 22 21 21 21 21 20 20 21 22 21 20 19 18 17 16 16 15 14 13 13 12 11 11 13 15 17 18 20 21 22 22 23 23 25 27 27 24 19 16 15 13 13 13 13 15 17
20 23 26 27 27 22 15 8 5 7 9 11 12 13 14 16 17 17 19 23 29 27 20 15 17 21 24 26 28 27 22 18 16 15 16 17 19 19 20 20 20 20 20 20 21 22 23 22 21 20 19 17 16 16 16 15 14 13 13 12 12 12 14 15 17 18 19 21 22 22 22 22 22 24 26 27 24 19 16 15 15 15 15 15 16
18 20 21 23 25 26 24 20 14 10 7 7 9 10 12 14 16 19 23 27 28 24 21 19 18 20 24 27 26 22 19 16 15 14 15 17 18 19 20 20 20 21 21 22 23 23 22 21 20 19 18 17 16 16 16 14 13 13 13 13 13 14 15 16 17 18 19 20 21 22 22 22 21 21 23 25 26 24 20 17 16 17 17 16 16
16 17 18 19 20 21 22 22 21 18 16 14 14 16 17 19 20 21 21 20 18 17 19 20 19 20 23 25 22 19 18 17 16 14 15 17 18 20 21 21 21 22 23 24 24 23 21 20 19 18 17 17 17 16 15 14 13 13 13 14 14 15 15 16 17 18 19 20 21 21 22 22 21 21 21 22 24 25 24 21 18 17 17 18 17
15 15 16 17 18 18 18 19 18 17 17 17 18 18 19 19 19 18 15 14 13 14 15 17 17 17 19 20 19 18 18 17 14 13 15 17 19 20 20 20 21 23 25 24 23 21 19 18 17 17 17 17 17 16 15 14 14 14 14 15 15 15 16 17 17 18 18 19 20 21 21 22 22 21 21 21 22 24 25 25 22 19 17 17 17
15 14 14 15 15 15 15 16 16 15 14 13 13 13 14 15 16 16 15 15 15 14 14 15 16 16 17 17 18 17 16 14 13 14 16 18 19 20 20 21 23 24 24 22 20 19 18 17 17 17 17 17 16 16 16 15 15 15 16 16 15 16 16 17 17 18 18 19 19 20 21 22 22 22 21 21 21 21 23 25 25 23 20 17 16
17 16 15 14 14 14 13 13 13 12 11 10 10 10 10 11 12 12 13 13 12 11 11 11 12 12 13 14 14 13 12 14 16 17 18 19 21 22 22 23 23 22 21 19 18 18 17 17 17 16 16 16 16 16 16 16 16 16 16 16 16 17 16 17 17 18 18 18 19 19 20 21 21 21 21 21 21 20 21 22 24 25 24 20 17
Wind_Direction
259 267 281 293 301 304 302 297 296 295 293 281 266 264 266 266 270 279 282 273 258 247 246 251 254 256 259 263 266 269 270 270 270 269 268 267 264 261 258 256 254 253 253 253 253 254 255 256 257 260 265 271 277 282 284 284 284 283 283 283 282 282 282 282 282 283 284 285 285 284 283 283 283 283 284 285 285 285 284 282 280 278 277 276 275
260 265 277 292 299 299 293 287 290 291 284 274 268 270 275 275 274 274 273 269 259 245 241 247 252 255 259 262 266 268 270 270 268 266 263 261 259 258 257 256 255 255 255 254 254 253 253 253 255 259 265 272 277 281 283 283 283 282 281 279 279 278 277 276 275 274 274 275 277 279 280 281 282 282 282 282 280 280 280 280 280 280 280 279 278
260 265 274 286 291 287 280 275 275 278 275 271 270 271 275 280 279 271 264 260 254 246 243 247 251 254 258 263 268 271 271 270 268 264 261 258 255 254 253 254 254 255 255 255 254 253 253 254 256 259 264 269 272 275 276 278 279 279 278 276 275 273 271 271 272 271 269 269 270 271 273 274 276 277 278 277 276 276 275 274 274 274 274 275 276
264 268 273 277 277 272 269 267 264 266 268 271 272 270 272 280 281 273 263 258 254 252 253 255 255 253 252 255 261 266 269 269 266 263 260 257 255 252 250 249 249 249 250 252 253 254 255 255 255 259 263 267 270 273 275 277 277 276 275 276 275 274 272 272 272 271 270 270 270 270 270 270 270 271 271 271 271 271 271 271 270 270 269 269 269
266 270 273 274 269 263 260 259 260 263 266 270 273 271 271 276 278 276 273 270 268 266 265 264 263 258 253 251 253 256 260 262 260 259 258 257 254 252 250 248 248 247 247 247 249 252 254 254 256 260 263 266 268 272 275 277 277 275 274 274 274 275 276 275 273 272 271 271 272 273 273 273 273 272 272 271 269 269 268 267 267 266 265 264 263
265 269 272 271 267 259 254 253 256 260 265 271 274 273 271 271 272 273 274 277 279 279 276 272 268 264 260 257 255 255 255 255 253 252 254 255 254 252 251 250 250 250 250 250 249 250 252 255 259 261 264 266 267 269 273 276 277 275 273 272 272 273 273 272 270 270 269 270 271 273 275 276 276 276 275 274 272 271 270 268 266 265 264 262 262
262 267 270 271 268 260 252 250 252 256 263 270 274 274 270 267 267 270 275 280 284 285 282 278 274 271 268 264 259 256 254 252 250 249 248 249 249 248 249 249 250 251 252 253 253 253 255 258 261 263 264 267 268 268 270 273 276 277 273 270 270 271 271 271 269 268 268 269 271 274 278 280 279 278 276 275 275 273 271 270 269 268 267 265 264
263 266 269 271 270 265 258 254 254 258 266 271 272 270 267 265 266 270 275 278 281 283 283 281 279 277 275 271 265 260 255 251 250 248 245 243 241 243 244 245 246 249 252 254 255 255 257 259 261 263 264 266 268 269 269 270 272 275 273 270 268 268 271 271 270 269 269 270 272 275 279 281 279 277 277 277 277 276 274 273 272 272 272 271 270
263 266 268 269 270 270 267 263 261 263 268 271 272 270 268 267 268 269 272 275 276 277 276 276 275 275 278 277 270 263 258 254 250 245 242 240 239 241 245 248 249 252 254 255 256 257 259 262 264 265 266 268 270 271 271 270 270 271 271 269 266 265 267 268 268 269 269 270 272 274 277 278 277 276 277 278 278 277 277 276 276 276 276 275 275
264 266 267 267 268 269 268 267 266 266 267 270 272 273 271 270 269 269 269 270 272 272 269 268 268 270 276 277 272 266 259 251 246 243 241 241 240 242 247 251 253 255 257 257 258 259 260 263 267 269 270 271 273 273 273 273 273 271 270 268 266 264 263 264 265 266 268 269 271 273 274 275 275 275 276 278 278 278 278 277 277 277 277 277 276
266 267 268 268 268 268 268 267 266 265 266 268 270 272 272 271 270 269 267 266 268 269 267 264 262 262 265 268 269 268 261 249 245 248 249 250 251 252 253 254 255 256 258 259 260 260 261 264 270 272 271 271 272 273 274 275 275 274 272 271 270 268 267 266 266 267 268 269 271 272 273 274 274 275 276 277 278 278 278 278 278 277 276 275 274
267 268 269 269 269 269 268 267 265 264 263 264 266 268 269 269 269 267 266 265 265 265 265 263 261 258 259 260 260 263 263 253 246 249 252 254 256 258 258 260 259 257 259 262 264 263 264 266 270 271 271 271 272 274 275 276 275 274 273 273 272 272 271 270 270 270 271 271 272 272 273 273 274 275 276 277 277 278 279 279 278 278 277 276 274
271 271 271 271 271 271 270 269 266 264 262 262 262 264 265 265 266 265 265 263 262 262 261 260 259 257 257 258 258 258 257 250 246 249 252 253 254 256 258 259 257 256 260 265 266 264 265 267 269 271 272 272 272 273 273 274 275 274 274 274 274 274 273 273 272 272 272 273 273 274 274 274 275 275 275 276 276 276 277 277 277 277 276 276 275
273 273 273 273 272 273 272 270 267 264 263 262 262 262 263 263 263 264 263 262 261 261 260 259 258 256 254 255 257 257 255 252 253 256 257 255 256 258 257 256 255 256 261 264 264 263 264 268 272 275 275 275 275 276 276 277 277 278 278 277 277 277 276 276 275 275 275 275 276 276 276 276 276 276 276 276 276 276 276 275 275 275 275 274 274
274 273 272 272 273 273 272 269 266 264 264 264 263 263 263 263 263 263 262 261 260 261 260 259 257 256 254 253 254 256 258 258 257 256 255 255 257 260 258 257 259 261 264 264 263 262 264 268 273 276 277 278 279 279 279 280 280 280 280 279 279 279 278 278 278 278 278 277 277 277 277 277 277 277 277 277 277 277 276 276 276 275 275 274 274
272 271 271 272 272 272 270 267 264 264 265 265 264 263 263 262 262 261 260 260 259 259 258 257 256 255 254 254 254 254 254 253 251 250 251 253 255 257 257 258 260 262 263 262 261 262 264 268 273 276 279 280 280 280 281 281 282 282 282 282 282 282 281 280 280 279 278 278 278 278 278 278 277 277 278 277 277 277 277 277 277 276 276 276 275
271 271 271 271 270 270 268 266 265 265 264 263 262 263 262 261 260 259 258 258 258 257 255 254 254 254 254 255 256 254 252 251 252 253 255 255 256 256 257 258 259 259 259 258 259 261 264 268 273 279 283 284 285 285 285 285 285 285 285 285 284 284 283 282 281 281 280 280 280 279 279 279 279 279 279 279 279 279 279 278 278 278 278 278 277
270 270 270 270 269 267 265 265 265 264 262 261 261 261 260 259 259 258 257 256 256 255 255 254 253 253 254 255 254 254 254 255 256 256 256 257 257 257 257 257 257 256 256 256 257 260 263 267 274 280 284 287 289 289 288 287 287 286 286 285 284 283 282 282 281 281 280 280 280 280 279 280 280 280 280 280 280 280 280 280 280 280 280 280 280
270 269 269 268 267 266 266 265 264 262 260 259 258 257 258 259 259 259 258 257 256 256 255 255 254 254 255 255 255 254 255 257 257 255 255 255 256 257 258 258 257 256 255 255 257 260 263 268 274 279 284 289 290 290 289 287 286 286 285 284 283 282 281 280 280 279 279 279 278 278 278 278 278 279 279 280 280 281 281 282 282 282 282 281 281
270 269 268 267 266 266 266 266 263 261 260 258 255 254 256 258 259 259 259 257 256 256 255 255 255 256 256 256 257 257 258 257 256 255 254 254 254 255 257 258 258 258 258 258 260 262 265 270 275 281 286 290 291 290 288 287 285 285 284 283 282 281 280 280 280 279 279 278 278 278 277 277 278 278 279 280 281 282 282 283 283 283 282 282 281
270 269 268 267 266 265 265 264 263 261 259 258 255 254 256 258 259 259 259 257 255 254 254 255 256 256 256 256 256 258 259 259 257 255 254 254 254 255 255 256 258 259 259 260 262 265 268 272 277 283 288 290 290 288 287 286 285 284 283 282 281 280 279 279 278 278 278 277 277 277 277 277 278 279 281 282 283 283 283 283 283 283 282 282 282
269 269 268 268 267 266 264 263 262 261 259 258 256 254 255 256 256 256 256 255 254 256 259 259 257 256 255 255 256 257 258 259 258 257 256 255 255 255 255 256 257 258 259 261 264 267 270 275 280 286 289 289 288 287 286 285 285 284 282 281 280 280 279 278 278 277 277 276 276 276 277 278 280 282 283 284 284 284 284 284 284 284 284 284 284
268 267 267 267 266 266 265 263 262 260 259 258 257 256 255 256 256 255 254 253 254 257 258 257 257 256 255 256 257 258 260 261 261 260 258 257 255 254 254 255 256 258 261 264 267 270 274 279 284 287 287 287 286 285 285 284 283 282 281 281 280 280 280 279 279 277 277 276 277 278 280 282 283 284 285 285 285 285 285 285 285 286 286 286 286
266 266 265 265 264 264 263 263 262 261 259 259 258 257 256 256 257 256 256 256 257 258 256 253 253 254 254 256 259 261 262 262 261 258 258 258 257 256 256 257 260 262 265 267 271 274 278 282 284 285 285 285 284 283 282 281 280 279 280 280 280 281 281 281 280 279 279 280 281 282 284 285 286 286 286 285 285 286 286 287 287 288 288 288 288
266 265 264 264 264 263 262 262 262 261 260 259 258 257 257 257 257 258 258 257 257 257 256 254 253 254 257 260 261 259 257 256 253 251 253 256 258 259 261 263 265 267 270 274 277 279 280 281 283 283 284 283 282 281 279 278 278 278 279 279 280 280 281 281 282 282 283 284 285 286 286 287 286 286 286 286 286 287 287 288 288 289 289 289 288
267 267 265 264 263 262 262 261 261 261 260 258 257 257 256 256 257 257 256 255 253 253 252 252 253 257 260 260 258 255 254 254 252 251 253 256 258 260 263 266 269 273 276 278 279 278 279 281 283 283 283 282 280 278 277 276 277 278 278 278 279 279 279 280 281 283 284 285 285 285 285 285 286 286 287 287 287 288 288 288 289 288 288 289 289
269 268 268 267 265 263 261 260 259 258 258 257 256 255 255 254 253 250 248 247 249 252 254 256 259 259 258 255 253 253 254 255 255 255 256 258 260 263 266 269 273 276 278 278 277 277 280 282 282 282 281 280 278 277 276 276 276 276 276 277 278 279 279 280 281 283 284 285 284 284 285 286 286 287 288 288 288 288 288 289 289 289 290 290 290
268 268 267 267 266 265 264 262 259 258 256 255 254 253 253 252 251 249 247 247 248 249 252 256 258 257 253 253 255 255 255 256 257 259 260 261 264 266 268 271 274 276 277 276 277 279 280 280 280 280 279 277 276 275 275 275 275 275 276 277 278 279 280 281 283 284 285 285 285 285 286 287 287 288 288 287 287 288 289 290 291 292 292 292 292
269 268 267 266 266 265 264 263 261 259 257 255 253 251 251 250 250 249 249 249 249 247 246 246 247 247 248 251 254 255 256 257 259 260 261 262 264 266 269 272 275 276 276 276 277 278 279 278 278 277 275 274 274 274 274 274 275 276 277 278 279 280 281 283 284 285 285 285 286 286 287 287 287 287 287 287 288 290 292 293 294 294 294 293 292
269 268 266 265 264 264 263 262 261 260 259 257 254 252 249 248 248 248 248 247 247 246 245 243 241 242 246 250 252 253 255 256 256 258 260 263 266 268 270 272 273 274 275 276 276 276 276 276 274 273 273 273 273 273 274 275 276 277 278 279 280 281 283 284 284 285 285 286 286 286 285 286 286 287 289 290 292 294 295 295 295 294 294 293 293
268 267 265 263 262 261 260 259 259 258 258 257 256 253 251 248 246 246 246 245 244 245 245 244 240 240 243 246 248 250 252 254 255 258 260 263 265 267 269 270 270 271 272 273 273 273 273 272 271 271 271 271 272 273 274 274 275 276 277 279 281 283 284 284 285 285 285 284 284 284 286 288 290 292 293 294 296 297 296 295 295 294 294 294 294
269 268 266 265 262 260 258 257 256 255 255 255 255 254 252 250 248 246 245 246 246 246 245 244 243 242 243 245 248 250 253 255 258 260 262 264 265 266 268 268 268 269 269 270 270 270 270 270 270 269 270 270 271 272 272 273 274 276 278 280 282 283 283 284 284 283 281 282 284 288 292 294 296 296 297 298 299 298 297 296 296 295 295 295 296
271 269 267 265 263 261 259 257 255 253 252 251 251 251 250 249 248 247 244 244 246 247 247 246 246 246 246 248 250 253 256 258 260 262 264 265 266 267 268 268 268 268 268 268 268 269 268 268 268 268 268 269 269 269 270 272 274 276 278 280 280 281 282 281 279 279 281 286 291 296 300 301 300 300 302 303 302 300 297 296 297 297 297 298 299
278 274 269 265 263 261 260 258 255 253 251 249 248 248 248 247 246 244 240 236 235 238 242 243 244 244 245 248 252 256 259 260 261 262 264 266 268 268 267 266 266 266 267 267 267 267 267 266 266 266 266 266 266 267 269 271 273 275 277 278 279 279 278 275 276 281 288 294 299 305 309 308 306 306 308 307 303 299 298 298 299 300 301 300 300
282 281 277 270 264 260 259 258 256 253 251 249 247 246 245 244 243 241 238 234 230 230 232 234 236 237 240 245 250 255 258 258 258 259 261 265 268 268 267 265 265 265 265 266 266 266 266 265 264 264 263 264 265 266 268 270 272 273 274 276 276 273 269 271 280 289 296 302 308 313 316 314 311 311 311 307 301 299 300 301 302 302 302 302 304
285 282 280 277 270 262 257 255 254 252 250 248 247 245 243 242 240 238 236 234 232 231 232 234 235 235 237 240 243 243 244 244 245 249 255 261 266 269 269 267 266 265 264 264 264 265 264 263 262 262 262 263 264 266 268 270 271 272 273 272 267 262 265 277 288 297 304 309 314 319 320 317 315 314 311 304 300 300 301 303 304 303 304 307 309
297 286 278 276 274 268 258 252 250 250 248 246 244 243 242 240 239 237 235 233 232 233 233 234 235 234 232 229 228 228 228 231 238 249 259 265 267 268 268 267 265 264 263 263 263 263 262 261 261 261 261 262 263 266 267 268 268 268 266 260 255 259 272 284 294 303 309 314 319 324 325 322 318 314 309 302 299 299 301 302 303 304 307 310 311
308 296 281 272 270 269 262 251 246 245 246 244 241 241 240 238 236 236 234 232 231 231 230 230 231 230 227 224 224 227 231 237 245 254 262 265 266 265 264 263 261 261 262 262 261 260 260 260 260 260 261 262 264 265 265 264 263 259 252 246 251 265 278 289 299 308 313 319 324 329 330 327 321 315 309 302 299 298 299 301 304 307 311 314 315
317 305 287 270 264 264 261 250 241 239 241 239 236 236 236 233 231 231 231 230 229 229 228 228 227 227 226 226 227 230 236 242 249 255 258 260 261 261 260 258 257 258 259 259 258 258 259 259 259 260 261 262 262 260 258 256 251 245 239 241 254 269 281 295 306 312 317 323 328 333 336 335 328 319 310 304 300 298 300 303 307 312 315 315 315
331 319 296 271 260 260 257 246 236 232 231 232 231 229 228 226 224 223 224 225 225 225 226 226 226 227 229 231 234 238 242 245 250 253 254 254 254 254 254 253 253 254 255 255 256 257 257 257 258 259 259 257 254 251 248 244 238 234 235 244 258 272 288 302 311 315 320 326 331 337 342 343 339 328 315 309 304 301 302 306 309 312 313 315 317
349 336 308 276 264 262 256 243 231 225 223 223 222 223 225 224 223 222 221 221 222 223 224 225 227 229 231 232 237 244 249 250 249 249 250 249 249 249 249 248 249 250 251 253 254 255 255 256 255 254 250 247 243 240 236 232 229 230 236 246 259 276 294 306 312 317 323 328 333 340 346 350 349 340 324 313 310 306 304 306 309 311 315 320 324
2 355 329 290 275 269 258 242 226 219 219 218 218 220 224 224 223 223 223 223 222 222 221 222 223 221 219 217 221 232 243 249 247 244 244 244 244 244 243 243 244 246 249 250 251 252 252 250 246 241 238 234 231 229 228 226 226 230 237 247 261 281 297 306 313 320 326 329 334 341 348 353 356 352 336 318 313 310 308 309 314 319 324 328 331
10 11 3 333 292 269 254 241 225 216 214 216 218 220 221 222 222 223 223 223 222 219 216 214 208 201 198 201 212 223 233 239 238 236 238 240 240 238 237 239 241 243 245 246 247 246 243 237 231 228 226 224 223 224 224 224 225 230 238 249 264 283 297 306 314 322 327 331 335 341 348 355 358 358 350 330 315 312 313 316 321 327 332 335 337
17 22 23 20 7 299 236 224 215 210 209 212 214 215 217 220 221 220 220 218 211 203 198 196 192 187 187 194 207 216 224 232 235 234 235 236 235 233 233 234 236 237 238 239 238 234 226 221 219 219 218 218 220 222 223 223 225 230 239 250 265 283 296 306 313 320 327 330 334 339 347 353 358 0 358 348 329 318 316 318 319 324 334 341 342
23 27 31 35 37 42 78 170 186 193 199 207 210 212 216 218 217 217 217 207 191 181 177 176 181 184 187 193 203 212 222 234 237 232 229 228 227 226 227 226 226 227 228 228 223 216 212 212 213 213 215 218 221 222 223 223 225 232 241 252 267 282 294 303 310 317 324 328 331 337 344 350 356 359 1 358 349 332 318 311 310 314 324 335 340
28 31 34 38 42 47 58 81 131 169 184 195 201 206 212 214 212 210 203 188 178 173 171 173 186 194 195 197 204 213 223 229 224 215 214 216 216 215 215 213 213 216 217 213 208 205 207 209 210 213 216 219 222 223 224 224 228 236 246 257 270 281 291 300 307 313 319 324 329 334 340 346 352 357 360 1 358 349 330 311 302 302 309 320 330
31 36 38 39 41 46 54 63 76 99 132 162 176 179 183 185 183 179 175 172 171 171 172 178 190 198 199 200 206 213 216 212 206 203 208 212 211 207 205 205 206 208 208 204 203 204 207 209 212 215 219 222 224 226 227 227 231 240 250 260 270 279 287 295 303 310 316 321 325 331 336 341 347 354 358 360 360 358 349 330 311 301 300 305 314
33 37 41 44 44 44 49 57 67 79 94 111 127 136 142 147 149 151 156 164 172 180 185 189 195 197 198 201 207 209 205 201 200 204 210 212 207 203 202 203 205 206 204 203 204 206 208 211 215 219 222 225 226 227 228 230 234 242 251 259 267 275 283 290 298 306 313 317 321 326 332 336 341 348 354 357 358 359 358 352 337 319 305 300 302
37 38 41 46 48 49 51 55 62 73 88 104 118 125 130 136 141 146 153 160 167 173 182 188 191 191 194 198 201 199 195 196 202 212 215 211 206 204 205 207 207 205 203 202 204 206 209 213 219 223 225 227 228 229 231 233 237 243 250 256 262 270 279 286 293 301 309 314 318 322 327 332 336 341 348 352 355 357 359 359 355 344 326 310 302
39 40 42 45 47 51 55 58 61 67 78 94 109 122 131 137 141 145 150 152 150 149 153 162 170 175 180 185 187 188 193 203 216 221 216 209 206 207 208 207 205 202 200 200 203 206 211 217 222 226 229 230 231 233 235 236 240 245 251 256 261 268 274 281 288 296 304 310 314 318 323 327 331 336 341 346 350 352 356 360 1 358 349 333 316
42 42 43 44 47 50 55 61 64 67 73 81 92 106 120 130 135 138 142 146 148 148 151 157 164 169 175 181 189 197 206 213 218 218 214 210 208 206 204 201 198 196 197 200 204 209 215 220 225 229 233 236 238 240 241 242 244 248 253 258 264 269 273 279 285 293 301 307 311 315 318 322 325 330 335 340 343 346 351 356 0 2 359 352 339